Hyannis, MA

9:09 AM EDT on March 23, 2017 (GMT -0400)
Barnstable Municipal-Boardman-Polando Field

Weather History for KHYA - September, 2012

Change the Weather History Date:

Wednesday, September 12, 2012

  Actual Average Record
Temperature  
Mean Temperature 60 °F -  
Max Temperature 73 °F 73 °F 90 °F (1983)
Min Temperature 46 °F 55 °F 36 °F (1966)
Degree Days  
Heating Degree Days 6    
Growing Degree Days 10 (Base 50)    
Moisture  
Dew Point 52 °F    
Average Humidity 72    
Maximum Humidity 96    
Minimum Humidity 42    
Precipitation  
Precipitation 0.00 in - - ()
Sea Level Pressure  
Sea Level Pressure 30.33 in    
Wind  
Wind Speed 3 mph (SW)    
Max Wind Speed 12 mph    
Max Gust Speed -    
Visibility 10 miles    
Events      
Averages and records for this station are not official NWS values.
T = Trace of Precipitation, MM = Missing Value Source: NWS Daily Summary

Daily Weather History Graph

Daily Weather History Graph

Search for Another Location

Airport or City:

Trip Planner

Search our weather history database for the weather conditions in past years. The results will help you decide how hot, cold, wet, or windy it might be!

Date:

Astronomy

Sep. 12, 2012 Rise Set
Actual Time 6:18 AM EDT 6:54 PM EDT
Civil Twilight 5:50 AM EDT 7:22 PM EDT
Nautical Twilight 5:17 AM EDT 7:55 PM EDT
Astronomical Twilight 4:43 AM EDT 8:29 PM EDT
Moon 2:29 AM EDT (9/12) 4:42 PM EDT (9/12)
Length of Visible Light 13h 32m
Length of Day
12h 36m
Waning Crescent, 14% of the Moon is Illuminated
Sep 12
Waning Crescent
Sep 15
New
Sep 22
First Quarter
Sep 29
Full
Oct 8
Last Quarter

Hourly Weather History & Observations

Time (EDT) Temp. Dew Point Humidity Pressure Visibility Wind Dir Wind Speed Gust Speed Precip Events Conditions
12:56 AM 51.1 °F 48.9 °F 92% 30.28 in 10.0 mi Calm Calm - N/A   Clear
1:56 AM 50.0 °F 48.0 °F 93% 30.28 in 10.0 mi Calm Calm - N/A   Clear
2:56 AM 50.0 °F 48.0 °F 93% 30.28 in 10.0 mi Calm Calm - N/A   Clear
3:56 AM 48.0 °F 46.9 °F 96% 30.29 in 10.0 mi Calm Calm - N/A   Clear
4:56 AM 48.0 °F 46.9 °F 96% 30.30 in 10.0 mi Calm Calm - N/A   Clear
5:56 AM 46.9 °F 45.0 °F 93% 30.31 in 10.0 mi Calm Calm - N/A   Clear
6:56 AM 48.9 °F 46.9 °F 93% 30.32 in 10.0 mi Calm Calm - N/A   Clear
7:56 AM 57.9 °F 54.0 °F 87% 30.33 in 10.0 mi Calm Calm - N/A   Clear
8:56 AM 64.9 °F 53.1 °F 65% 30.35 in 10.0 mi WNW 4.6 mph - N/A   Clear
9:56 AM 68.0 °F 48.9 °F 50% 30.35 in 10.0 mi WNW 4.6 mph - N/A   Clear
10:56 AM 70.0 °F 48.0 °F 46% 30.35 in 10.0 mi Variable 3.5 mph - N/A   Clear
11:56 AM 73.0 °F 48.9 °F 42% 30.35 in 10.0 mi Variable 5.8 mph - N/A   Clear
12:56 PM 73.0 °F 53.1 °F 49% 30.35 in 10.0 mi SSW 6.9 mph - N/A   Clear
1:56 PM 73.0 °F 54.0 °F 51% 30.35 in 10.0 mi SSW 10.4 mph - N/A   Clear
2:56 PM 73.9 °F 52.0 °F 46% 30.34 in 10.0 mi SSW 11.5 mph - N/A   Clear
3:56 PM 71.1 °F 57.0 °F 61% 30.33 in 10.0 mi SSW 10.4 mph - N/A   Clear
4:56 PM 71.1 °F 55.0 °F 57% 30.33 in 10.0 mi SW 11.5 mph - N/A   Clear
5:56 PM 69.1 °F 55.9 °F 63% 30.33 in 10.0 mi SW 10.4 mph - N/A   Clear
6:56 PM 66.9 °F 57.0 °F 70% 30.34 in 10.0 mi SW 8.1 mph - N/A   Clear
7:56 PM 66.2 °F 57.2 °F 73% 30.35 in 10.0 mi SW 10.4 mph - N/A   Clear
8:56 PM 64.9 °F 57.9 °F 78% 30.36 in 10.0 mi SW 9.2 mph - N/A   Clear
9:56 PM 64.0 °F 55.9 °F 75% 30.37 in 10.0 mi SW 8.1 mph - N/A   Clear
10:56 PM 62.1 °F 55.0 °F 78% 30.37 in 10.0 mi SW 5.8 mph - N/A   Clear
11:56 PM 60.1 °F 55.0 °F 83% 30.36 in 10.0 mi SSW 3.5 mph - N/A   Clear